Big Bear Station Historical Data
Daily Summary for March 30, 2017 Units:  English    Metric   Both
Next Day »
Daily Weekly Monthly Yearly Custom
  High: Low: Average:
Temperature: 57.9 °F 28.8 °F 42.5 °F
Dew Point: 35.4 °F 11.9 °F 27.3 °F
Humidity: 80% 30% 57%
Wind Speed: 11.9mph 0.0mph 4.3mph
Wind Gust: 19.7mph - -
Wind- - WSW
Pressure: 30.19 in 29.81 in -
Precipitation: 0.00 in    
Historical Graphs
 
 
Tabular Data for March 30, 2017
Time Temperature Dew Point Pressure Wind Wind Speed Wind Gust Humidity Rainfall Rate (Hourly)
00:13 38.5 °F 32.6 °F 30.19 in SSE 1.7 mph -999.0 mph 79% 0 in
00:28 38.1 °F 31.8 °F 30.19 in SSE 2.2 mph -999.0 mph 78% 0 in
00:43 37.2 °F 30.7 °F 30.18 in Calm   -999.0 mph 77% 0 in
00:59 38.7 °F 31.1 °F 30.18 in South 2.2 mph -999.0 mph 74% 0 in
01:14 42.1 °F 28.0 °F 30.18 in South 1.7 mph -999.0 mph 57% 0 in
01:29 40.3 °F 29.8 °F 30.17 in South 1.7 mph -999.0 mph 66% 0 in
01:44 39.4 °F 29.0 °F 30.17 in Calm   -999.0 mph 66% 0 in
01:59 39.4 °F 30.8 °F 30.17 in Calm   -999.0 mph 71% 0 in
02:15 40.3 °F 30.2 °F 30.17 in South 1.7 mph -999.0 mph 67% 0 in
02:30 40.6 °F 29.4 °F 30.16 in South 1.7 mph -999.0 mph 64% 0 in
02:46 41.4 °F 29.4 °F 30.15 in South 2.7 mph -999.0 mph 62% 0 in
03:01 40.5 °F 29.3 °F 30.15 in SSE 2.2 mph -999.0 mph 64% 0 in
03:16 40.5 °F 29.7 °F 30.14 in Calm   -999.0 mph 65% 0 in
03:32 40.6 °F 29.8 °F 30.14 in Calm   -999.0 mph 65% 0 in
03:47 40.6 °F 30.1 °F 30.13 in Calm   -999.0 mph 66% 0 in
04:02 40.1 °F 30.4 °F 30.12 in SSE 1.7 mph -999.0 mph 68% 0 in
04:17 39.7 °F 30.4 °F 30.12 in SE 2.2 mph -999.0 mph 69% 0 in
04:33 38.7 °F 30.1 °F 30.11 in SSE 1.7 mph -999.0 mph 71% 0 in
04:48 37.9 °F 30.0 °F 30.11 in Calm   -999.0 mph 73% 0 in
05:03 37.6 °F 29.7 °F 30.11 in South 2.7 mph -999.0 mph 73% 0 in
05:19 37.9 °F 28.3 °F 30.10 in Calm   -999.0 mph 68% 0 in
05:34 39.0 °F 27.1 °F 30.10 in NW 1.1 mph -999.0 mph 62% 0 in
05:49 40.1 °F 27.7 °F 30.09 in NW 1.1 mph -999.0 mph 61% 0 in
06:04 39.7 °F 25.3 °F 30.09 in Calm   -999.0 mph 56% 0 in
06:19 39.7 °F 26.5 °F 30.10 in SW 1.7 mph -999.0 mph 59% 0 in
06:35 40.1 °F 25.7 °F 30.09 in Calm   -999.0 mph 56% 0 in
06:50 40.1 °F 25.7 °F 30.09 in Calm   -999.0 mph 56% 0 in
07:05 41.4 °F 26.0 °F 30.09 in WNW 2.2 mph -999.0 mph 54% 0 in
07:20 41.4 °F 26.4 °F 30.09 in Calm   -999.0 mph 55% 0 in
07:35 42.6 °F 26.2 °F 30.09 in Calm   -999.0 mph 52% 0 in
07:51 43.2 °F 26.3 °F 30.08 in SSW 1.1 mph -999.0 mph 51% 0 in
08:06 44.4 °F 26.9 °F 30.08 in NE 1.7 mph -999.0 mph 50% 0 in
08:21 45.1 °F 28.0 °F 30.08 in WNW 2.7 mph -999.0 mph 51% 0 in
08:36 46.2 °F 28.1 °F 30.08 in NW 2.7 mph -999.0 mph 49% 0 in
08:52 47.5 °F 27.7 °F 30.08 in WNW 3.7 mph -999.0 mph 46% 0 in
09:07 48.2 °F 28.4 °F 30.08 in East 2.7 mph -999.0 mph 46% 0 in
09:22 49.5 °F 26.8 °F 30.07 in WNW 3.2 mph -999.0 mph 41% 0 in
09:38 49.6 °F 28.0 °F 30.06 in WNW 9.4 mph -999.0 mph 43% 0 in
09:53 50.2 °F 28.6 °F 30.06 in West 5.8 mph -999.0 mph 43% 0 in
10:23 51.3 °F 28.4 °F 30.05 in WSW 6.8 mph -999.0 mph 41% 0 in
10:39 52.2 °F 27.3 °F 30.05 in West 5.8 mph -999.0 mph 38% 0 in
10:55 53.8 °F 27.5 °F 30.04 in North 5.3 mph -999.0 mph 36% 0 in
11:10 54.1 °F 27.0 °F 30.04 in WSW 7.8 mph -999.0 mph 35% 0 in
11:26 54.9 °F 27.0 °F 30.04 in ENE 8.3 mph -999.0 mph 34% 0 in
11:41 55.8 °F 24.8 °F 30.03 in NW 10.4 mph -999.0 mph 30% 0 in
11:56 57.9 °F 26.6 °F 30.01 in NW 5.8 mph -999.0 mph 30% 0 in
12:12 57.6 °F 28.7 °F 30.01 in NNW 5.3 mph -999.0 mph 33% 0 in
12:27 57.2 °F 28.3 °F 30.01 in NW 4.7 mph 19.7 mph 33% 0 in
12:42 55.9 °F 28.6 °F 30.00 in WNW 3.7 mph -999.0 mph 35% 0 in
12:57 55.8 °F 29.2 °F 30.00 in WNW 4.7 mph -999.0 mph 36% 0 in
13:13 54.9 °F 28.4 °F 29.99 in SSW 2.7 mph -999.0 mph 36% 0 in
13:28 55.0 °F 29.2 °F 29.99 in West 3.7 mph -999.0 mph 37% 0 in
13:43 54.1 °F 29.7 °F 29.98 in NNW 2.7 mph -999.0 mph 39% 0 in
13:58 54.3 °F 30.5 °F 29.98 in WSW 3.7 mph -999.0 mph 40% 0 in
14:14 53.1 °F 31.2 °F 29.96 in North 2.7 mph -999.0 mph 43% 0 in
14:29 52.0 °F 31.9 °F 29.96 in South 5.8 mph -999.0 mph 46% 0 in
14:44 50.7 °F 32.7 °F 29.94 in SSW 6.8 mph -999.0 mph 50% 0 in
15:00 49.6 °F 32.7 °F 29.93 in North 7.3 mph -999.0 mph 52% 0 in
15:15 50.7 °F 34.7 °F 29.92 in SW 5.8 mph 19.7 mph 54% 0 in
15:30 51.1 °F 35.0 °F 29.91 in NNW 6.8 mph -999.0 mph 54% 0 in
15:46 49.3 °F 34.3 °F 29.89 in SSW 11.4 mph -999.0 mph 56% 0 in
16:01 48.6 °F 34.9 °F 29.89 in North 6.3 mph -999.0 mph 59% 0 in
16:16 49.1 °F 35.4 °F 29.89 in East 4.7 mph -999.0 mph 59% 0 in
16:32 48.0 °F 34.4 °F 29.88 in NW 7.8 mph -999.0 mph 59% 0 in
16:47 47.1 °F 34.3 °F 29.87 in West 4.2 mph -999.0 mph 61% 0 in
17:02 44.6 °F 33.9 °F 29.87 in NNE 8.3 mph -999.0 mph 66% 0 in
17:17 44.4 °F 34.5 °F 29.87 in WNW 6.3 mph -999.0 mph 68% 0 in
17:32 42.4 °F 34.0 °F 29.86 in WNW 5.3 mph -999.0 mph 72% 0 in
17:48 40.3 °F 29.5 °F 29.86 in West 11.9 mph -999.0 mph 65% 0 in
18:03 39.6 °F 28.0 °F 29.86 in NE 10.9 mph -999.0 mph 63% 0 in
18:18 39.2 °F 24.8 °F 29.86 in NW 6.3 mph -999.0 mph 56% 0 in
18:34 39.2 °F 20.1 °F 29.86 in NW 8.3 mph -999.0 mph 46% 0 in
18:49 38.5 °F 11.9 °F 29.85 in East 9.9 mph -999.0 mph 33% 0 in
19:04 37.2 °F 17.3 °F 29.84 in NW 7.8 mph -999.0 mph 44% 0 in
19:19 36.3 °F 16.5 °F 29.85 in West 8.9 mph -999.0 mph 44% 0 in
19:35 35.2 °F 14.9 °F 29.84 in NE 7.8 mph -999.0 mph 43% 0 in
19:50 34.3 °F 17.1 °F 29.85 in NW 5.8 mph -999.0 mph 49% 0 in
20:05 33.8 °F 20.2 °F 29.85 in WNW 2.2 mph -999.0 mph 57% 0 in
20:21 33.1 °F 21.9 °F 29.84 in West 5.8 mph -999.0 mph 63% 0 in
20:36 32.5 °F 22.4 °F 29.83 in NNW 4.2 mph -999.0 mph 66% 0 in
20:51 32.2 °F 22.1 °F 29.84 in WNW 4.7 mph -999.0 mph 66% 0 in
21:06 31.5 °F 21.1 °F 29.84 in WNW 3.7 mph -999.0 mph 65% 0 in
21:21 30.6 °F 19.1 °F 29.84 in WNW 9.4 mph -999.0 mph 62% 0 in
21:37 30.2 °F 17.6 °F 29.84 in NW 9.9 mph -999.0 mph 59% 0 in
21:52 29.5 °F 17.7 °F 29.83 in WNW 8.3 mph -999.0 mph 61% 0 in
22:07 29.1 °F 20.9 °F 29.84 in NW 8.3 mph -999.0 mph 71% 0 in
22:23 29.1 °F 21.5 °F 29.83 in NNW 3.7 mph -999.0 mph 73% 0 in
22:38 29.1 °F 22.2 °F 29.82 in SSW 1.7 mph -999.0 mph 75% 0 in
22:53 29.5 °F 23.5 °F 29.83 in NNE 3.2 mph -999.0 mph 78% 0 in
23:09 29.5 °F 23.5 °F 29.81 in NNW 4.7 mph -999.0 mph 78% 0 in
23:24 29.3 °F 23.3 °F 29.81 in North 4.7 mph -999.0 mph 78% 0 in
23:40 28.9 °F 23.2 °F 29.81 in NNW 4.7 mph -999.0 mph 79% 0 in
23:55 28.8 °F 23.4 °F 29.81 in North 8.9 mph -999.0 mph 80% 0 in
Big Bear CA Weather